This is the latest recevied weather packets stored in our database for station/object SQ3MKP-13. If no packets are shown the sender has not sent any weather packets the latest 1 day(s).
| Time | Temp. | Humidity | Pressure | Rain* | Wind** | Luminosity | Snow |
|---|---|---|---|---|---|---|---|
| 1778055231 | 13.89° C | 74% | 995.2 hPa | - | - | 397 W/m² | - |
| 1778054930 | 14.44° C | 74% | 995.2 hPa | - | - | 660 W/m² | - |
| 1778054629 | 14.44° C | 75% | 995.2 hPa | - | - | 580 W/m² | - |
| 1778054027 | 13.89° C | 75% | 995 hPa | - | - | 533 W/m² | - |
| 1778053726 | 13.33° C | 76% | 995 hPa | - | - | 506 W/m² | - |
| 1778053425 | 12.78° C | 79% | 994.9 hPa | - | - | 505 W/m² | - |
| 1778053124 | 12.78° C | 79% | 995.3 hPa | - | - | 299 W/m² | - |
| 1778052823 | 12.78° C | 79% | 995.1 hPa | - | - | 288 W/m² | - |
| 1778051920 | 12.22° C | 83% | 995.3 hPa | - | - | 521 W/m² | - |
| 1778051619 | 12.22° C | 83% | 995.5 hPa | - | - | 164 W/m² | - |
| 1778051318 | 12.22° C | 84% | 995.4 hPa | - | - | 161 W/m² | - |
| 1778051017 | 12.22° C | 83% | 995.5 hPa | - | - | 269 W/m² | - |
| 1778050716 | 11.67° C | 86% | 995.3 hPa | - | - | 218 W/m² | - |
| 1778050415 | 11.67° C | 86% | 995.1 hPa | - | - | 218 W/m² | - |
| 1778050114 | 11.67° C | 88% | 995.1 hPa | - | - | 159 W/m² | - |
| 1778049813 | 11.11° C | 87% | 995.1 hPa | - | - | 119 W/m² | - |
| 1778049512 | 11.11° C | 87% | 994.9 hPa | - | - | 110 W/m² | - |
| 1778049211 | 11.11° C | 86% | 994.8 hPa | - | - | 90 W/m² | - |
| 1778048910 | 11.67° C | 87% | 994.8 hPa | - | - | 73 W/m² | - |
| 1778048609 | 11.11° C | 86% | 994.9 hPa | - | - | 55 W/m² | - |
| 1778048308 | 11.11° C | 85% | 995 hPa | - | - | 38 W/m² | - |
| 1778048007 | 11.11° C | 85% | 995 hPa | - | - | 41 W/m² | - |
| 1778047104 | 11.11° C | 86% | 994.9 hPa | - | - | 91 W/m² | - |
| 1778046502 | 11.11° C | 85% | 995 hPa | - | - | 60 W/m² | - |
| 1778045599 | 11.11° C | 85% | 994.9 hPa | - | - | 46 W/m² | - |
* Rain since midnight (hover to see other rain measurements)
** Current wind speed in m/s (hover to see current wind gust speed)